• In Belarus
  • List of Countries
  • For 7 days
  • Water Temperature
  • Satellite Maps
  • Weather Map
  • Weather Widgets
  • user-avatar
    Login

    Hourly Weather La Esperanza

    Today, 21 April, Sunday

    Time Temperature Precipitation Wind Pressure Humidity
    00:00 +12°C° 0 mm 2 mps 618 mmHg 64%
    01:00 +12°C° 0 mm 2 mps 617 mmHg 63%
    02:00 +12°C° 0 mm 2 mps 617 mmHg 61%
    03:00 +12°C° 0 mm 2 mps 617 mmHg 60%
    04:00 +12°C° 0 mm 2 mps 617 mmHg 61%
    05:00 +12°C° 0 mm 2 mps 617 mmHg 61%
    06:00 +13°C° 0 mm 2 mps 617 mmHg 58%
    07:00 +15°C° 0 mm 2 mps 618 mmHg 53%
    08:00 +18°C° 0 mm 2 mps 620 mmHg 48%
    09:00 +21°C° 0 mm 2 mps 621 mmHg 43%
    10:00 +24°C° 0 mm 2 mps 621 mmHg 41%
    11:00 +26°C° 0 mm 2 mps 622 mmHg 38%
    12:00 +28°C° 0 mm 2 mps 622 mmHg 36%
    13:00 +27°C° 0 mm 2 mps 621 mmHg 39%
    14:00 +26°C° 0 mm 2 mps 621 mmHg 41%
    15:00 +25°C° 0 mm 2 mps 620 mmHg 44%
    16:00 +24°C° 0.1 mm 2 mps 619 mmHg 51%
    17:00 +21°C° 0.1 mm 2 mps 619 mmHg 59%
    18:00 +20°C° 0.1 mm 2 mps 618 mmHg 66%
    19:00 +19°C° 0.2 mm 2 mps 618 mmHg 73%
    20:00 +17°C° 0.2 mm 2 mps 618 mmHg 81%
    21:00 +16°C° 0.2 mm 2 mps 618 mmHg 88%
    22:00 +16°C° 0.1 mm 1 mps 618 mmHg 89%
    23:00 +16°C° 0.1 mm 1 mps 618 mmHg 89%

    Tomorrow, 22 April, Monday

    Time Temperature Precipitation Wind Pressure Humidity
    00:00 +16°C° 0.1 mm 1 mps 618 mmHg 90%
    01:00 +16°C° 0.1 mm 1 mps 618 mmHg 90%
    02:00 +15°C° 0.1 mm 1 mps 617 mmHg 90%
    03:00 +15°C° 0.1 mm 1 mps 617 mmHg 91%
    04:00 +15°C° 0 mm 1 mps 617 mmHg 91%
    05:00 +15°C° 0 mm 1 mps 617 mmHg 91%
    06:00 +15°C° 0 mm 1 mps 617 mmHg 91%
    07:00 +18°C° 0 mm 1 mps 618 mmHg 80%
    08:00 +21°C° 0 mm 1 mps 619 mmHg 69%
    09:00 +23°C° 0 mm 1 mps 621 mmHg 58%
    10:00 +25°C° 0 mm 1 mps 621 mmHg 51%
    11:00 +27°C° 0 mm 1 mps 621 mmHg 45%
    12:00 +29°C° 0 mm 1 mps 622 mmHg 38%
    13:00 +27°C° 0.1 mm 1 mps 620 mmHg 43%
    14:00 +26°C° 0.1 mm 2 mps 619 mmHg 47%
    15:00 +24°C° 0.1 mm 2 mps 618 mmHg 52%
    16:00 +23°C° 0.2 mm 1 mps 618 mmHg 57%
    17:00 +22°C° 0.2 mm 1 mps 617 mmHg 62%
    18:00 +21°C° 0.2 mm 1 mps 617 mmHg 67%
    19:00 +20°C° 0.2 mm 1 mps 617 mmHg 74%
    20:00 +19°C° 0.2 mm 1 mps 617 mmHg 81%
    21:00 +18°C° 0.2 mm 1 mps 617 mmHg 88%
    22:00 +18°C° 0.2 mm 1 mps 617 mmHg 89%
    23:00 +16°C° 0.2 mm 1 mps 617 mmHg 90%

    Day after tomorrow, 23 April, Tuesday

    Time Temperature Precipitation Wind Pressure Humidity
    00:00 +16°C° 0.2 mm 1 mps 617 mmHg 91%
    01:00 +16°C° 0.1 mm 1 mps 617 mmHg 91%
    02:00 +16°C° 0.1 mm 1 mps 617 mmHg 91%
    03:00 +16°C° 0.1 mm 1 mps 616 mmHg 92%
    04:00 +16°C° 0 mm 1 mps 616 mmHg 92%
    05:00 +15°C° 0 mm 1 mps 616 mmHg 93%
    06:00 +14°C° 0 mm 0 mps 617 mmHg 93%
    07:00 +17°C° 0 mm 0 mps 618 mmHg 81%
    08:00 +20°C° 0 mm 0 mps 619 mmHg 68%
    09:00 +23°C° 0 mm 0 mps 621 mmHg 56%
    10:00 +26°C° 0 mm 1 mps 621 mmHg 50%
    11:00 +27°C° 0 mm 1 mps 621 mmHg 44%
    12:00 +28°C° 0 mm 1 mps 621 mmHg 38%
    13:00 +27°C° 0 mm 1 mps 620 mmHg 42%
    14:00 +25°C° 0 mm 1 mps 618 mmHg 46%
    15:00 +24°C° 0 mm 1 mps 617 mmHg 50%
    16:00 +23°C° 0.1 mm 1 mps 617 mmHg 54%
    17:00 +22°C° 0.1 mm 1 mps 617 mmHg 58%
    18:00 +19°C° 0.1 mm 0 mps 616 mmHg 63%
    19:00 +20°C° 0.1 mm 1 mps 616 mmHg 70%
    20:00 +19°C° 0.1 mm 1 mps 617 mmHg 77%
    21:00 +18°C° 0.1 mm 1 mps 617 mmHg 84%
    22:00 +16°C° 0.2 mm 1 mps 617 mmHg 85%
    23:00 +16°C° 0.2 mm 1 mps 617 mmHg 86%

    24 April, Wednesday

    Time Temperature Precipitation Wind Pressure Humidity
    00:00 +16°C° 0.2 mm 1 mps 617 mmHg 88%
    01:00 +16°C° 0.1 mm 1 mps 616 mmHg 89%
    02:00 +14°C° 0.1 mm 0 mps 616 mmHg 90%
    03:00 +14°C° 0.1 mm 0 mps 615 mmHg 92%
    04:00 +14°C° 0 mm 0 mps 616 mmHg 92%
    05:00 +14°C° 0 mm 0 mps 616 mmHg 92%
    06:00 +14°C° 0 mm 0 mps 616 mmHg 92%
    07:00 +16°C° 0 mm 0 mps 617 mmHg 80%
    08:00 +21°C° 0 mm 1 mps 619 mmHg 69%
    09:00 +24°C° 0 mm 1 mps 620 mmHg 58%
    10:00 +25°C° 0 mm 1 mps 620 mmHg 52%
    11:00 +27°C° 0 mm 1 mps 620 mmHg 46%
    12:00 +28°C° 0 mm 1 mps 621 mmHg 40%
    13:00 +28°C° 0.1 mm 1 mps 620 mmHg 42%
    14:00 +27°C° 0.1 mm 1 mps 619 mmHg 43%
    15:00 +27°C° 0.1 mm 1 mps 618 mmHg 44%
    16:00 +25°C° 0.3 mm 1 mps 617 mmHg 52%
    17:00 +23°C° 0.3 mm 1 mps 617 mmHg 61%
    18:00 +21°C° 0.3 mm 1 mps 616 mmHg 69%
    19:00 +20°C° 0.3 mm 1 mps 616 mmHg 75%
    20:00 +19°C° 0.3 mm 1 mps 616 mmHg 81%
    21:00 +16°C° 0.3 mm 0 mps 616 mmHg 87%
    22:00 +16°C° 0.2 mm 0 mps 616 mmHg 87%
    23:00 +16°C° 0.2 mm 0 mps 616 mmHg 88%

    25 April, Thursday

    Time Temperature Precipitation Wind Pressure Humidity
    00:00 +15°C° 0.2 mm 0 mps 616 mmHg 88%
    01:00 +15°C° 0.1 mm 0 mps 616 mmHg 88%
    02:00 +15°C° 0.1 mm 0 mps 615 mmHg 88%
    03:00 +16°C° 0.1 mm 1 mps 615 mmHg 89%
    04:00 +16°C° 0 mm 1 mps 615 mmHg 90%
    05:00 +15°C° 0 mm 1 mps 616 mmHg 91%
    06:00 +15°C° 0 mm 1 mps 616 mmHg 91%
    07:00 +18°C° 0 mm 1 mps 617 mmHg 82%
    08:00 +19°C° 0 mm 2 mps 618 mmHg 73%
    09:00 +23°C° 0 mm 2 mps 619 mmHg 64%
    10:00 +24°C° 0 mm 2 mps 619 mmHg 59%
    11:00 +25°C° 0 mm 2 mps 620 mmHg 53%
    12:00 +27°C° 0 mm 2 mps 620 mmHg 48%
    13:00 +26°C° 0.1 mm 2 mps 619 mmHg 49%
    14:00 +26°C° 0.1 mm 2 mps 618 mmHg 50%
    15:00 +26°C° 0.1 mm 2 mps 618 mmHg 51%
    16:00 +25°C° 0.2 mm 2 mps 617 mmHg 59%
    17:00 +23°C° 0.2 mm 2 mps 617 mmHg 67%
    18:00 +20°C° 0.2 mm 2 mps 617 mmHg 76%
    19:00 +20°C° 0.2 mm 1 mps 617 mmHg 81%
    20:00 +19°C° 0.2 mm 1 mps 617 mmHg 86%
    21:00 +18°C° 0.2 mm 1 mps 617 mmHg 91%
    22:00 +18°C° 0.2 mm 1 mps 617 mmHg 91%
    23:00 +16°C° 0.2 mm 0 mps 617 mmHg 91%

    26 April, Friday

    Time Temperature Precipitation Wind Pressure Humidity
    00:00 +16°C° 0.2 mm 0 mps 617 mmHg 90%
    01:00 +16°C° 0.3 mm 0 mps 617 mmHg 91%
    02:00 +16°C° 0.3 mm 0 mps 616 mmHg 91%
    03:00 +15°C° 0.3 mm 0 mps 616 mmHg 91%
    04:00 +15°C° 0.2 mm 0 mps 616 mmHg 91%
    05:00 +15°C° 0.2 mm 0 mps 617 mmHg 92%
    06:00 +15°C° 0.2 mm 0 mps 617 mmHg 92%
    07:00 +18°C° 0.3 mm 0 mps 618 mmHg 82%
    08:00 +20°C° 0.3 mm 0 mps 619 mmHg 72%
    09:00 +24°C° 0.3 mm 1 mps 621 mmHg 62%
    10:00 +24°C° 0.3 mm 1 mps 620 mmHg 61%
    11:00 +24°C° 0.3 mm 1 mps 619 mmHg 61%
    12:00 +24°C° 0.3 mm 1 mps 619 mmHg 61%
    13:00 +24°C° 0.3 mm 1 mps 619 mmHg 59%
    14:00 +25°C° 0.3 mm 1 mps 618 mmHg 57%
    15:00 +25°C° 0.3 mm 2 mps 618 mmHg 55%
    16:00 +24°C° 0.2 mm 1 mps 618 mmHg 59%
    17:00 +23°C° 0.2 mm 1 mps 618 mmHg 62%
    18:00 +22°C° 0.2 mm 1 mps 617 mmHg 65%
    19:00 +21°C° 0 mm 1 mps 617 mmHg 70%
    20:00 +19°C° 0 mm 1 mps 617 mmHg 74%
    21:00 +18°C° 0 mm 1 mps 617 mmHg 79%
    22:00 +18°C° 0 mm 1 mps 617 mmHg 80%
    23:00 +16°C° 0 mm 1 mps 617 mmHg 81%
    Show more